NOAA 16 DEB

Satellite information

Favourite Embed

Satellite Type and Status

DEBRISIN ORBIT

Key statistics

Satellite NOAA 16 DEB at a glance.

Uptime

9214

Days in orbit

Revolutions

≈ 14.6

Per day

Orbit

SSO

Sun Synchronous Orbit

Inclination

99.0

Latest

Satellite identification and parameters

Extended collection of information and parameters for NOAA 16 DEB.

Object identification

Identified? True

Debris? True

Object name: NOAA 16 DEB

International designator: 2000-055EZ

Object number (NORAD): 41249

Object ID (CCSDS): 41249

Country: UNITED STATES OF AMERICA (US)

Current information (Y/N): Y

RCS size: SMALL

Orbital parameters

Period: 98.861 minutes

Inclination: 98.9626 deg

SMA: 7082.357 km

Apoapsis: 726.496 km

Periapsis: 681.948 km

RAAN: 197.7873 deg

Eccentricy: 0.00314501

Argument of periapsis: 245.3794 deg

Mean anomaly: 114.4124 deg

Mean motion: 14.56585662 rev/day

Mean motion (dot): 0.00017993 rev/day2

B* drag term: 0.004012901 1/REarth

Two-line elements (TLE)

Creation date: Dec. 11, 2025, 10:54 a.m.

Reference frame: TEME

Reference center: EARTH

Epoch: Dec. 11, 2025, 1:13 a.m. UTC

TLE line 0: 0 NOAA 16 DEB

TLE line 1: 1 41249U 00055EZ 25345.05130287 .00017993 00000-0 40129-2 0 9992

TLE line 2: 2 41249 98.9626 197.7873 0031450 245.3794 114.4124 14.56585662518381

Live tracking on map

Real-time ground track for satellite NOAA 16 DEB.

In-orbit conjunctions

A list of the most updated potential collisions computed for object NOAA 16 DEB.

Target Orbit TCA Probability of collision Miss distance Type
PICOSAT 1&2 (TETHERED) SSO 2025-05-23 01:27:10 0.0002612725 488.0 (m) PAYLOAD
SCOUT G-1 R/B LEO 2025-04-06 22:02:39 0.0001831752 409.0 (m) ROCKET BODY
CZ-6A DEB LEO 2025-01-23 11:20:33 0.0003986819 500.0 (m) DEBRIS

Associated space launch

The NOAA K, L and M POES satellites begin the fifth generation of improved environmental monitoring in support of NOAA missions. The instrument payload has significant improvements and additions/deletions. The instrument changes have effected the spacecraft subsystems and data formats.

NOAA 16 DEB was lifted into orbit during the mission ‘Titan II SLV | NOAA 16’, on board a Titan II SLV space rocket.

The launch took place on Sept. 21, 2000, 10:22 a.m. from Space Launch Complex 4W.

For more information about the launch, click the button.

Launch to space Titan II SLV | NOAA 16
Titan II SLV | NOAA 16

Agency: N/A

Status: Launch Successful

Launch date: Sept. 21, 2000, 10:22 a.m. UTC

Rocket: Titan II SLV

Launch pad: Space Launch Complex 4W

Location: Vandenberg SFB, CA, USA

...

Latest news about this satellite

There are no fresh news available about this satellite. Check back as we update our databases every day.


Newsletter sign-up

Weekly statistics, charts and insights to help you stay on top of the space industry.